Weather History for KBTA - June, 2014

Change the Weather History Date:

Tuesday, June 17, 2014

  Actual Average (KOMA) Record (KOMA)
Temperature  
Mean Temperature 76 °F 73 °F  
Max Temperature 89 °F 84 °F 100 °F (1918)
Min Temperature 64 °F 62 °F 42 °F (1974)
Degree Days  
Heating Degree Days 0 0  
Month to date heating degree days 15  
Since 1 June heating degree days 15  
Since 1 July heating degree days 6165  
Cooling Degree Days 12 8  
Month to date cooling degree days 103  
Year to date cooling degree days 185  
Since 1 June cooling degree days 103  
Growing Degree Days 26 (Base 50)    
Moisture  
Dew Point 67 °F    
Average Humidity 69    
Maximum Humidity 88    
Minimum Humidity 54    
Precipitation  
Precipitation 0.01 in 0.13 in 5.02 in (1875)
Month to date precipitation 2.51  
Year to date precipitation 13.79  
Snow  
Snow 0.00 in 0.00 in - ()
Month to date snowfall 0.0  
Since 1 July snowfall 26.4  
Snow Depth -    
Sea Level Pressure  
Sea Level Pressure 29.73 in    
Wind  
Wind Speed 18 mph (SE)    
Max Wind Speed 30 mph    
Max Gust Speed 40 mph    
Visibility 10 miles    
Events Rain , Thunderstorm    
T = Trace of Precipitation, MM = Missing Value Source: NWS Daily Summary

Daily Weather History Graph

Daily Weather History Graph

Search for Another Location

Airport or City:

Trip Planner

Search our weather history database for the weather conditions in past years. The results will help you decide how hot, cold, wet, or windy it might be!

Date:

Astronomy

Jun. 17, 2014 Rise Set
Actual Time 5:50 AM CDT 9:00 PM CDT
Civil Twilight 5:16 AM CDT 9:34 PM CDT
Nautical Twilight 4:32 AM CDT 10:18 PM CDT
Astronomical Twilight 3:40 AM CDT 11:10 PM CDT
Moon No Moon Rise 11:09 AM CDT (6/17)
Length of Visible Light 16h 18m
Length of Day
15h 10m
Waning Gibbous, 73% of the Moon is Illuminated
Jun 17
Waning Gibbous
Jun 19
Last Quarter
Jun 27
New
Jul 5
First Quarter
Jul 12
Full

Hourly Weather History & Observations

Time (CDT) Temp. Heat Index Dew Point Humidity Pressure Visibility Wind Dir Wind Speed Gust Speed Precip Events Conditions
12:15 AM 79.0 °F - 69.8 °F 73% 29.66 in 10.0 mi South 16.1 mph 25.3 mph N/A   Clear
12:35 AM 78.8 °F - 69.6 °F 73% 29.69 in 10.0 mi SSE 9.2 mph 20.7 mph N/A   Clear
1:15 AM 72.9 °F - 65.1 °F 77% 29.74 in 10.0 mi ENE 10.4 mph 18.4 mph N/A   Overcast
1:35 AM 68.9 °F - 61.9 °F 78% 29.76 in 10.0 mi NNE 20.7 mph 39.1 mph N/A Thunderstorm Overcast
1:55 AM 66.2 °F - 60.3 °F 81% 29.78 in 10.0 mi NNE 20.7 mph 26.5 mph N/A   Overcast
2:15 AM 65.8 °F - 60.1 °F 82% 29.78 in 10.0 mi NE 29.9 mph 33.4 mph N/A   Overcast
2:35 AM 67.1 °F - 59.5 °F 77% 29.79 in 10.0 mi NE 23.0 mph 40.3 mph N/A   Overcast
2:55 AM 66.2 °F - 60.1 °F 81% 29.79 in 10.0 mi NE 27.6 mph 39.1 mph N/A   Overcast
3:15 AM 65.5 °F - 60.6 °F 84% 29.81 in 10.0 mi ENE 21.9 mph 28.8 mph N/A Rain Light Rain
3:35 AM 65.3 °F - 61.0 °F 86% 29.81 in 10.0 mi ENE 21.9 mph 27.6 mph N/A Rain Light Rain
3:55 AM 65.3 °F - 61.0 °F 86% 29.81 in 10.0 mi ENE 23.0 mph 28.8 mph N/A   Overcast
4:15 AM 64.9 °F - 61.0 °F 87% 29.81 in 10.0 mi East 18.4 mph 28.8 mph N/A Rain Light Rain
4:35 AM 64.8 °F - 61.0 °F 88% 29.79 in 10.0 mi ESE 23.0 mph 31.1 mph N/A Rain Light Rain
4:55 AM 64.8 °F - 60.8 °F 87% 29.79 in 10.0 mi ESE 23.0 mph 29.9 mph 0.01 in Rain Light Rain
5:15 AM 65.1 °F - 60.6 °F 85% 29.77 in 10.0 mi SE 23.0 mph 32.2 mph N/A   Overcast
5:35 AM 65.3 °F - 59.9 °F 83% 29.77 in 10.0 mi ESE 21.9 mph 32.2 mph N/A   Scattered Clouds
5:55 AM 65.7 °F - 59.9 °F 82% 29.76 in 10.0 mi ESE 18.4 mph 29.9 mph N/A   Mostly Cloudy
6:15 AM 66.0 °F - 59.5 °F 80% 29.76 in 10.0 mi SE 17.3 mph 26.5 mph N/A   Scattered Clouds
6:35 AM 66.9 °F - 59.2 °F 76% 29.76 in 10.0 mi SE 17.3 mph 25.3 mph N/A   Clear
6:55 AM 67.1 °F - 59.2 °F 76% 29.76 in 10.0 mi SE 18.4 mph 25.3 mph N/A   Clear
7:35 AM 68.9 °F - 59.4 °F 72% 29.76 in 10.0 mi SE 16.1 mph 25.3 mph N/A   Clear
7:55 AM 70.2 °F - 60.1 °F 70% 29.75 in 10.0 mi SE 17.3 mph 25.3 mph N/A   Clear
8:15 AM 71.6 °F - 60.8 °F 69% 29.76 in 10.0 mi SE 15.0 mph 25.3 mph N/A   Clear
8:35 AM 72.5 °F - 61.3 °F 68% 29.76 in 10.0 mi SE 18.4 mph 25.3 mph N/A   Clear
8:55 AM 73.6 °F - 62.1 °F 67% 29.76 in 10.0 mi SE 23.0 mph 31.1 mph N/A   Clear
9:15 AM 74.3 °F - 62.8 °F 67% 29.75 in 10.0 mi SE 16.1 mph 27.6 mph N/A   Clear
9:35 AM 75.2 °F - 63.9 °F 68% 29.75 in 10.0 mi SE 19.6 mph 27.6 mph N/A   Clear
9:55 AM 76.1 °F - 64.8 °F 68% 29.75 in 10.0 mi SSE 21.9 mph 27.6 mph N/A   Clear
10:15 AM 77.2 °F - 65.8 °F 68% 29.74 in 10.0 mi SSE 12.7 mph 26.5 mph N/A   Clear
10:35 AM 78.6 °F - 67.1 °F 68% 29.74 in 10.0 mi SSE 17.3 mph 29.9 mph N/A   Clear
10:55 AM 79.7 °F - 67.8 °F 67% 29.72 in 10.0 mi SSE 20.7 mph 26.5 mph N/A   Clear
11:15 AM 80.4 °F 83.2 °F 68.5 °F 67% 29.72 in 10.0 mi South 17.3 mph 28.8 mph N/A   Scattered Clouds
11:35 AM 81.0 °F 83.9 °F 68.5 °F 66% 29.72 in 10.0 mi SSE 18.4 mph 29.9 mph N/A   Scattered Clouds
11:55 AM 81.7 °F 84.9 °F 69.1 °F 65% 29.72 in 10.0 mi SSE 19.6 mph 27.6 mph N/A   Mostly Cloudy
12:15 PM 82.4 °F 85.8 °F 69.3 °F 64% 29.72 in 10.0 mi SSE 20.7 mph 26.5 mph N/A   Overcast
12:35 PM 83.1 °F 87.1 °F 70.0 °F 64% 29.71 in 10.0 mi South 25.3 mph 28.8 mph N/A   Overcast
1:15 PM 84.2 °F 88.4 °F 69.8 °F 62% 29.71 in 10.0 mi SSE 20.7 mph 28.8 mph N/A   Overcast
1:35 PM 86.2 °F 91.4 °F 71.1 °F 60% 29.70 in 10.0 mi South 17.3 mph 28.8 mph N/A   Mostly Cloudy
1:55 PM 86.2 °F 91.1 °F 70.2 °F 59% 29.69 in 10.0 mi SSE 23.0 mph 28.8 mph N/A   Scattered Clouds
2:15 PM 87.1 °F 92.8 °F 71.1 °F 59% 29.69 in 10.0 mi South 16.1 mph 29.9 mph N/A   Mostly Cloudy
2:35 PM 86.9 °F 92.1 °F 70.3 °F 58% 29.69 in 10.0 mi South 20.7 mph 29.9 mph N/A   Mostly Cloudy
2:55 PM 87.6 °F 93.1 °F 70.7 °F 57% 29.69 in 10.0 mi South 21.9 mph 27.6 mph N/A   Mostly Cloudy
3:15 PM 88.5 °F 94.4 °F 71.2 °F 56% 29.69 in 10.0 mi South 17.3 mph 25.3 mph N/A   Mostly Cloudy
3:35 PM 88.7 °F 94.8 °F 71.1 °F 56% 29.68 in 10.0 mi South 20.7 mph 26.5 mph N/A   Mostly Cloudy
3:55 PM 89.1 °F 95.5 °F 71.4 °F 56% 29.69 in 10.0 mi South 15.0 mph 23.0 mph N/A   Mostly Cloudy
4:15 PM 89.6 °F 95.7 °F 70.7 °F 54% 29.69 in 10.0 mi South 23.0 mph 26.5 mph N/A   Scattered Clouds
4:35 PM 89.1 °F 95.5 °F 71.6 °F 56% 29.69 in 10.0 mi South 18.4 mph 24.2 mph N/A   Scattered Clouds
4:55 PM 88.5 °F 94.0 °F 70.7 °F 55% 29.69 in 10.0 mi South 17.3 mph 26.5 mph N/A   Scattered Clouds
5:15 PM 88.9 °F 94.7 °F 70.9 °F 55% 29.69 in 10.0 mi SSE 16.1 mph 27.6 mph N/A   Scattered Clouds
5:35 PM 88.3 °F 94.5 °F 71.2 °F 57% 29.69 in 10.0 mi South 19.6 mph 25.3 mph N/A   Scattered Clouds
5:55 PM 88.7 °F 94.3 °F 70.9 °F 55% 29.69 in 10.0 mi South 19.6 mph 25.3 mph N/A   Scattered Clouds
6:15 PM 88.7 °F 94.8 °F 71.4 °F 56% 29.69 in 10.0 mi SSE 18.4 mph 24.2 mph N/A   Mostly Cloudy
6:35 PM 88.3 °F 94.1 °F 71.1 °F 56% 29.69 in 10.0 mi South 17.3 mph 29.9 mph N/A   Mostly Cloudy
6:55 PM 88.0 °F 94.7 °F 71.8 °F 59% 29.69 in 10.0 mi SSE 15.0 mph 25.3 mph N/A   Scattered Clouds
7:15 PM 87.3 °F 93.6 °F 71.8 °F 60% 29.69 in 10.0 mi SSE 19.6 mph 25.3 mph N/A   Scattered Clouds
7:35 PM 86.9 °F 92.9 °F 71.6 °F 60% 29.69 in 10.0 mi SSE 18.4 mph 24.2 mph N/A   Clear
7:55 PM 86.5 °F 92.5 °F 71.6 °F 61% 29.70 in 10.0 mi SSE 16.1 mph 20.7 mph N/A   Clear
8:15 PM 86.0 °F 91.8 °F 71.4 °F 62% 29.69 in 10.0 mi SSE 15.0 mph 25.3 mph N/A   Clear
8:35 PM 85.1 °F 90.8 °F 71.6 °F 64% 29.69 in 10.0 mi SSE 15.0 mph - N/A   Clear
8:55 PM 84.6 °F 90.0 °F 71.6 °F 65% 29.69 in 10.0 mi SSE 16.1 mph 23.0 mph N/A   Clear
9:15 PM 84.2 °F 89.6 °F 71.6 °F 66% 29.71 in 10.0 mi SSE 13.8 mph - N/A   Clear
9:35 PM 83.5 °F 88.8 °F 72.0 °F 68% 29.73 in 10.0 mi SSE 12.7 mph 19.6 mph N/A   Clear
9:55 PM 82.9 °F 88.3 °F 72.1 °F 70% 29.74 in 10.0 mi SSE 13.8 mph 21.9 mph N/A   Clear
10:15 PM 82.4 °F 87.4 °F 72.1 °F 71% 29.75 in 10.0 mi SSE 12.7 mph 19.6 mph N/A   Clear
10:35 PM 81.9 °F 86.8 °F 72.5 °F 73% 29.74 in 10.0 mi SSE 16.1 mph 23.0 mph N/A   Clear
10:55 PM 81.5 °F 86.1 °F 72.1 °F 73% 29.75 in 10.0 mi SSE 17.3 mph 25.3 mph N/A   Clear
11:15 PM 81.1 °F 85.6 °F 72.1 °F 74% 29.76 in 10.0 mi SSE 16.1 mph 23.0 mph N/A   Clear
11:35 PM 80.6 °F 84.7 °F 72.0 °F 75% 29.76 in 10.0 mi SSE 16.1 mph 23.0 mph N/A   Clear
11:55 PM 80.2 °F 84.2 °F 72.0 °F 76% 29.74 in 10.0 mi SSE 15.0 mph 23.0 mph N/A   Clear